Location: Unspecified
(51.5147°N, 7.4673°E)
Time: 19:21:02
(UTC+01:00)

A-11 Canister half - Pass Details

Date: 19 February 2026
Orbit: 1512 x 1687 km, 47.2° (Epoch: 8 March)

Event Time Altitude Azimuth Distance (km) Brightness Sun altitude
Rises 21:03:29 0° 223° (SW) 4,933 11.9 -30.0°
Reaches altitude 10° 21:06:49 10° 217° (SW) 3,945 11.3 -30.4°
Enters shadow 21:14:49 43° 170° (S) 2,203 9.5 -31.6°
Maximum altitude 21:16:15 46° 149° (SSE) 2,140 - -31.8°
Drops below altitude 10° 21:25:29 10° 81° (E) 3,876 - -33.1°
Sets 21:28:44 0° 76° (ENE) 4,841 - -33.5°
